Weather Service Report


586 
ASUS41 KGYX 040010
RWRGYX
WEATHER ROUNDUP FOR MAINE AND NEW HAMPSHIRE
NATIONAL WEATHER SERVICE GRAY ME
700 PM EST SAT DEC 03 2016

MEZ002-005-006-010-012-015-018-020-021-024-026-027-029-040100-
MAINE
  
CITY           SKY/WX    TMP DP  RH WIND       PRES   REMARKS
PORTLAND       PTCLDY    35  22  58 NW12      29.97R                  
6HR MIN TEMP:  34; 6HR MAX TEMP:  43;                                

SANFORD        PTCLDY    33  24  69 CALM      29.98R                  
BAR HARBOR     CLOUDY    33  28  81 NW7       29.91R                  
WISCASSET      MOCLDY    33  29  85 CALM      29.96R                  
6HR MIN TEMP:  32; 6HR MAX TEMP:  44; 6HR PCP:  0.01;                

ROCKLAND       CLEAR     33  26  75 NW3       29.93R                  
FRYEBURG       CLOUDY    34  22  61 CALM      29.97R                  
6HR MIN TEMP:  32; 6HR MAX TEMP:  40;                                

LEWISTONAUBURN PTCLDY    34  22  61 NW12      29.97R                  
AUGUSTA        MOCLDY    33  22  63 NW8       29.94R                  
6HR MIN TEMP:  32; 6HR MAX TEMP:  40; 6HR PCP: TRACE;                

WATERVILLE     CLOUDY    33  26  75 NW6       29.91R                  
BANGOR         CLOUDY    32  25  75 NW7       29.92R                  
6HR MIN TEMP:  32; 6HR MAX TEMP:  36;                                

GREENVILLE       N/A     27  24  89 N13G24    29.85R WCI  16          
6HR MIN TEMP:  27; 6HR MAX TEMP:  30; 6HR PCP:  0.07;                

MILLINOCKET    CLOUDY    31  24  75 NW5       29.91R                  
6HR MIN TEMP:  31; 6HR MAX TEMP:  34; 6HR PCP: TRACE;                

HOULTON        CLOUDY    30  27  88 N6        29.87R                  
6HR MIN TEMP:  30; 6HR MAX TEMP:  31; 6HR PCP: TRACE;                

PRESQUE ISLE   CLOUDY    27  25  92 NW7       29.90R                  
6HR MIN TEMP:  26; 6HR MAX TEMP:  32; 6HR PCP: TRACE;                

FRENCHVILLE    CLEAR     25  20  81 NW9       29.87R                  
6HR MIN TEMP:  24; 6HR MAX TEMP:  30; 6HR PCP: TRACE;                

CARIBOU        CLOUDY    27  23  85 NW10      29.87R WCI  17          
6HR MIN TEMP:  26; 6HR MAX TEMP:  32; 6HR PCP:  0.01;                

$$

NHZ002-005-008-009-011-012-014-040100-
NEW HAMPSHIRE
  
CITY           SKY/WX    TMP DP  RH WIND       PRES   REMARKS
PORTSMOUTH     PTCLDY    36  24  62 W8        29.98R                  
ROCHESTER      MOCLDY    36  22  56 W12G18    29.97R                  
6HR MIN TEMP:  35; 6HR MAX TEMP:  43;                                

NASHUA         MOCLDY    36  24  62 W5        30.03R                  
MANCHESTER     MOCLDY    39  22  50 NW12G20   30.01R                  
6HR MIN TEMP:  38; 6HR MAX TEMP:  43;                                

CONCORD        CLOUDY    38  23  55 NW12G23   30.02R                  
6HR MIN TEMP:  37; 6HR MAX TEMP:  43;                                

PLYMOUTH       FLURRIES  34  27  74 NW9       30.00R                  
BERLIN         FLURRIES  31  22  69 NW10      29.96R                  
6HR MIN TEMP:  31; 6HR MAX TEMP:  36; 6HR PCP: TRACE;                

WHITEFIELD     CLOUDY    31  25  78 NW6       29.98R                  
6HR MIN TEMP:  31; 6HR MAX TEMP:  35; 6HR PCP: TRACE;                

JAFFREY        CLOUDY    35  23  61 NW5G20    30.02R                  
6HR MIN TEMP:  34; 6HR MAX TEMP:  39; 6HR PCP: TRACE;                

KEENE          MOCLDY    36  25  64 NW9       30.05R                  
LEBANON        CLOUDY    35  27  72 NW10      30.04R                  
6HR MIN TEMP:  35; 6HR MAX TEMP:  40; 6HR PCP: TRACE;                

MT WASHINGTON  SNOWSHWR   9   9 100 NW54G67     N/A  VSB 0   WCI -20  
6HR MIN TEMP:   9; 6HR MAX TEMP:  13; 6HR PCP:  0.26;                

$$

VTZ005-007-008-040100-
VERMONT
  
CITY           SKY/WX    TMP DP  RH WIND       PRES   REMARKS
ST JOHNSBURY     N/A     32  29  88 MISG      30.00R                  
MONTPELIER     FLURRIES  29  25  85 NW9       30.06R                  
BURLINGTON     CLOUDY    35  24  64 NW13      30.09R                  
$$

MAZ007-012-024-CTZ003-RIZ002-NYZ038-NYZ072-040100-
SOUTHERN NEW ENGLAND AND NY
  
CITY           SKY/WX    TMP DP  RH WIND       PRES   REMARKS
BOSTON         PTCLDY    39  24  55 NW15G26   30.03R                  
WORCESTER      PTCLDY    34  21  59 NW14      30.01R                  
NANTUCKET      CLOUDY    43  25  49 NW17G32   29.97R                  
PROVIDENCE     MOCLDY    42  23  46 NW12      30.03R                  
HARTFORD       MOCLDY    39  24  55 NW13      30.07R                  
ALBANY         FLURRIES  36  27  69 NW16G23   30.12S                  
NEW YORK CITY  MOCLDY    46  31  55 NW13      30.11R                  
$$

ANZ081-ANZ082-ANZ150-NHZ014-MEZ023>029-040100-
COASTAL MARINE OBSERVATIONS
  
STATION/POSITION TIME  TEMP    WIND        PRES    WAVE
                       AIR SEA DIR/SP/G            HT/PER
                 (UTC) (F)     (DEG/KT/KT) (MB)    (FT/S)
MOUNT DESERT ROC 0000   37                 1011.6R
MATINICUS ROCK   2300   38     340/ 26/ 28 1011.5R
ISLE OF SHOALS   2300   40     300/ 21/ 24 1013.9R
JEFFREYS LEDGE   2338      51                N/A     6/ 6
CASHES LEDGE BUO 2350   41 50  310/ 21/ 27 1012.5R   7/ 6
GEORGES BANK BUO 2350   45 52              1008.4R  12/ 9
$$

.............KEY..............
   WCI - WIND CHILL
   TC  - TEMPERATURE IN CELSIUS
   VSB - VISIBILITY IN MILES
   HX  - HEAT INDEX
   FAIR- INDICATES FEW OR NO CLOUDS BELOW 12,000 FT, WITH NO 
         SIGNIFICANT WEATHER AND/OR OBSTRUCTIONS TO VISIBILITY.


  

Return to Home page


Western Regional Climate Center, wrcc@dri.edu